Theta_e
332 327 322 321 322 325 326 325 326 327 328 330 335 336 333 338 337 338 344 348 347 348 348 349 349 351 354 353 356 355 356 358 359 360 356 354 350 339 344 349 351 352 351 349
329 327 325 326 325 325 325 325 326 326 329 329 328 328 328 328 331 331 341 349 349 347 348 350 349 351 357 359 356 356 358 360 361 360 357 355 353 348 344 351 353 351 351 349
327 326 327 326 326 325 323 323 325 327 327 325 326 327 328 329 332 331 333 349 349 349 349 349 349 351 359 360 361 356 358 362 361 360 357 354 347 347 349 352 351 350 351 349
324 325 326 326 326 324 321 324 325 327 325 323 326 324 326 331 332 333 333 340 350 350 349 349 349 351 357 363 362 357 359 361 360 363 362 357 348 342 342 352 351 350 350 350
323 324 325 326 326 325 324 325 325 326 322 324 324 323 324 326 333 337 335 339 347 351 352 350 350 351 356 363 366 361 364 367 365 365 362 350 348 354 353 352 352 352 350 349
324 325 325 325 327 327 326 324 324 324 321 321 322 327 326 326 335 336 337 339 338 339 345 351 351 352 361 364 367 366 367 361 359 357 357 355 357 356 354 352 352 352 350 349
323 324 325 326 326 326 324 322 321 322 321 323 322 326 326 327 336 336 335 336 339 338 346 353 354 353 363 367 365 362 356 350 346 353 351 353 355 352 351 353 351 349 349 348
322 324 325 326 325 326 325 321 321 325 324 325 327 327 328 331 336 335 335 334 338 341 350 356 355 365 366 364 357 353 349 346 348 351 353 352 351 354 356 354 352 350 348 348
322 323 326 326 326 326 325 323 322 322 320 323 324 326 334 333 333 333 339 344 346 346 358 358 365 362 360 355 352 350 346 348 352 354 354 355 356 357 354 352 351 350 349 347
323 325 324 326 326 326 323 324 323 321 324 327 328 334 342 347 341 346 353 352 351 366 365 367 365 359 356 353 351 348 349 353 354 355 353 355 355 353 355 352 352 348 347 346
327 324 324 325 324 325 324 324 322 320 324 325 328 335 342 353 354 354 354 355 352 367 368 366 365 363 359 355 352 349 349 355 354 353 346 350 353 355 352 350 349 348 346 344
330 321 322 324 324 326 326 325 322 322 323 327 327 334 334 338 353 353 356 357 356 354 358 359 359 360 359 357 355 353 352 351 354 346 350 355 355 353 349 348 347 347 345 344
330 330 322 323 324 325 326 327 324 324 325 324 329 335 346 348 349 352 355 358 359 359 360 359 357 355 356 357 356 353 354 353 352 355 354 355 354 351 351 347 348 347 345 345
333 331 334 328 327 327 329 327 326 324 326 325 326 350 355 350 348 352 352 357 360 357 359 358 356 353 356 357 357 357 355 353 347 355 355 353 352 350 350 348 347 348 346 345
330 336 334 330 329 328 327 328 327 327 328 331 343 353 351 349 339 337 346 355 360 359 358 356 356 356 356 359 359 358 356 353 352 355 354 353 350 350 349 348 348 344 342 343
331 333 334 338 330 329 329 328 329 326 327 328 337 352 343 344 344 348 354 355 359 357 358 355 356 354 356 360 359 357 356 354 357 355 354 353 349 350 348 347 346 344 342 342
332 331 335 341 337 338 334 344 341 341 344 340 346 347 336 344 358 355 351 357 359 359 359 356 355 352 358 357 360 359 358 357 357 355 353 352 349 349 348 347 345 344 344 342
335 332 335 337 336 341 339 339 339 343 347 349 357 353 355 358 354 353 353 356 356 355 355 354 355 359 360 356 353 359 358 358 356 356 355 353 349 349 349 347 345 344 343 344
329 331 332 333 333 335 336 341 341 341 340 341 345 343 346 356 353 351 352 353 353 352 351 352 355 353 354 352 355 353 357 356 355 355 347 341 346 349 349 348 346 345 344 344
329 329 331 335 336 337 342 338 337 340 349 338 336 343 340 349 353 350 344 346 350 349 350 352 351 347 345 344 348 351 347 347 343 342 336 334 334 327 331 332 347 346 345 344
339 337 333 331 333 340 339 337 333 335 346 337 336 337 346 340 346 342 340 340 341 344 345 349 347 351 345 342 338 338 340 338 334 329 327 328 327 328 329 332 336 347 346 345
339 341 340 341 343 344 344 338 350 339 328 334 339 343 342 341 341 340 339 340 340 340 341 342 347 350 345 342 339 336 335 334 333 337 331 333 330 330 329 327 331 347 347 347
338 336 333 334 339 329 337 339 340 340 340 340 341 341 339 339 340 339 339 339 339 340 340 342 344 345 344 344 344 343 343 343 342 341 337 333 329 338 332 331 346 348 348 347
336 331 335 336 334 329 331 337 337 337 336 336 337 336 337 338 338 338 338 337 337 338 337 339 339 340 338 336 335 336 337 339 342 343 341 338 330 332 341 347 350 349 349 348
331 331 332 332 334 336 336 336 333 332 334 333 332 333 335 334 337 335 337 336 336 335 335 334 334 335 334 333 332 330 333 335 337 338 341 343 339 340 342 344 345 346 346 346
329 329 333 335 330 332 334 333 331 330 332 331 331 332 334 334 335 335 335 335 335 333 332 331 330 331 331 330 331 328 323 325 327 329 331 333 335 340 342 343 343 341 341 341
Wind_Speed
12 5 7 13 13 16 17 18 17 14 14 4 5 5 6 10 9 14 18 20 19 21 16 30 33 34 35 38 38 34 30 27 28 27 22 19 20 10 16 17 16 18 18 11
7 13 14 15 17 18 19 18 18 13 10 6 8 10 8 9 7 7 14 21 22 18 18 19 28 31 34 37 40 36 31 27 28 29 22 21 22 15 16 15 16 18 14 9
14 16 17 19 18 20 14 8 8 7 11 9 7 8 7 10 7 8 7 22 22 22 21 18 19 29 31 35 39 39 34 28 21 21 20 14 11 13 13 13 20 15 13 11
13 16 20 19 16 17 10 11 14 7 8 5 4 7 8 8 11 9 10 11 18 19 18 16 18 21 31 33 37 37 33 25 21 20 15 16 16 12 19 19 20 16 15 13
17 21 19 20 21 15 9 7 6 6 7 4 8 2 8 8 6 6 5 12 17 17 23 23 21 28 30 33 34 34 27 24 20 19 15 12 15 15 13 14 17 22 19 15
21 20 18 16 16 12 8 8 6 3 2 5 9 5 9 7 7 4 14 10 9 8 12 19 22 26 28 31 32 31 28 20 18 13 11 14 11 11 6 7 14 22 18 15
19 18 21 16 14 11 7 4 2 4 4 7 10 5 16 10 9 9 9 10 8 9 12 14 16 16 25 29 28 29 23 18 13 13 10 10 9 10 9 7 11 16 15 15
15 14 16 22 15 9 7 9 6 7 5 14 4 8 17 16 11 9 12 11 9 9 14 17 18 16 26 26 27 26 23 17 13 11 7 8 8 9 8 7 10 13 14 12
16 18 13 21 20 14 7 7 7 5 8 4 6 10 7 13 9 3 8 10 9 10 18 20 17 21 23 24 26 24 20 16 15 13 9 6 11 8 5 7 11 11 12 11
15 15 10 14 11 17 11 8 3 2 5 6 7 4 4 4 10 15 13 9 11 16 17 17 16 21 22 25 25 22 20 17 14 14 13 12 13 9 8 10 11 12 14 14
12 11 9 14 17 14 6 6 5 4 5 6 4 4 3 7 13 10 10 9 10 16 16 14 14 22 25 26 26 25 21 21 16 15 10 10 11 13 13 12 14 13 13 14
9 8 6 14 16 13 9 13 11 6 9 4 5 6 8 7 10 10 9 8 9 11 13 14 12 17 22 23 26 25 20 21 17 14 10 11 14 15 15 14 14 13 14 12
6 5 6 11 10 9 5 11 9 7 4 9 5 4 10 9 13 15 9 6 7 7 10 13 11 9 16 21 25 25 22 20 20 14 12 12 11 13 17 16 15 14 14 14
5 4 2 6 9 6 6 10 8 7 6 8 6 4 5 7 8 19 17 6 7 7 9 7 8 7 16 21 24 26 25 22 19 15 15 15 14 13 16 14 15 15 17 16
5 5 10 9 7 7 13 2 12 7 6 6 8 9 7 8 6 10 11 14 6 7 7 7 6 6 10 19 19 22 21 20 20 18 20 17 17 16 16 17 16 14 16 16
5 6 10 7 8 10 7 13 20 17 11 8 8 4 6 5 4 9 11 11 8 7 7 8 7 7 8 15 17 16 17 18 23 21 20 18 20 21 20 19 18 18 18 19
4 3 5 6 19 15 3 3 4 5 28 2 4 5 7 6 8 6 9 15 18 13 13 10 3 5 15 18 18 18 17 17 17 18 19 21 23 23 23 22 20 20 20 19
5 4 3 4 9 5 3 3 14 14 28 15 20 16 10 6 8 11 10 14 15 13 10 8 7 13 20 7 20 20 21 20 18 17 19 18 25 23 21 22 22 22 21 20
4 5 4 4 5 10 6 6 3 6 13 20 21 17 8 11 12 9 14 16 12 10 6 5 14 14 15 18 13 18 21 22 22 16 2 17 7 19 20 22 24 24 23 21
6 4 5 7 5 7 2 8 7 7 7 11 7 24 14 9 6 8 11 10 8 9 10 10 14 17 20 19 17 13 9 6 9 6 8 16 23 26 23 42 28 28 28 27
5 5 0 3 5 6 10 8 8 1 7 15 17 6 13 1 2 5 11 10 13 13 11 8 10 11 14 17 14 11 3 4 5 3 12 13 15 25 31 40 47 36 32 29
5 5 4 5 5 6 19 7 5 5 8 14 17 14 8 9 5 3 5 6 7 8 14 18 12 16 15 14 15 11 9 6 3 11 6 15 29 47 46 48 47 38 34 31
3 2 1 2 4 9 18 6 7 5 15 12 14 10 8 9 9 7 4 5 6 13 17 19 16 18 21 18 17 15 14 12 12 14 12 13 25 44 16 33 39 33 34 28
2 2 2 2 5 2 4 11 6 3 7 7 12 10 9 8 10 6 5 5 6 12 14 15 16 16 17 20 19 16 16 14 14 13 14 12 6 9 5 18 30 29 28 26
3 2 3 4 6 1 10 17 8 5 8 11 8 8 9 8 8 8 7 6 8 11 15 15 15 15 16 17 19 21 20 17 17 17 14 9 23 26 28 21 19 25 30 32
2 2 2 1 7 4 3 3 10 7 7 8 7 9 11 9 8 8 6 10 11 11 14 11 13 15 15 17 18 19 22 23 22 21 19 18 17 17 15 11 11 12 13 12
Wind_Direction
224 202 217 227 235 240 252 261 268 278 291 350 267 255 224 223 217 218 191 187 183 185 175 175 175 176 173 175 172 178 189 191 190 191 177 193 208 247 241 246 242 244 223 224
223 227 227 232 245 250 252 257 267 278 294 301 299 291 278 280 250 257 181 182 185 170 170 174 174 173 165 165 171 179 187 187 194 192 196 205 219 235 244 247 242 208 210 221
224 230 235 237 239 253 261 255 274 279 306 314 316 316 303 288 271 274 254 187 180 170 174 176 176 170 161 164 169 181 189 187 184 193 207 207 199 224 219 233 194 210 216 216
241 246 247 254 242 235 236 244 265 250 273 259 270 274 291 267 259 245 262 167 172 169 172 172 175 165 165 167 170 184 188 191 197 200 197 203 214 212 214 212 223 217 214 207
235 238 244 246 250 254 229 251 274 296 298 348 302 351 263 282 295 36 84 83 153 147 171 185 179 166 165 161 168 180 175 181 185 192 220 212 218 225 228 226 222 208 207 203
233 247 253 262 264 255 221 257 255 314 316 305 258 207 270 260 191 149 121 118 152 179 176 190 167 151 147 157 158 170 169 169 162 182 206 226 239 237 211 153 179 190 198 195
250 243 256 259 272 281 217 137 337 321 320 248 245 229 251 252 181 171 161 140 148 141 151 156 147 148 144 146 149 160 153 138 154 175 203 222 238 237 233 204 188 187 198 209
238 252 237 258 254 221 228 158 163 213 226 255 284 230 251 234 184 159 169 160 147 119 127 144 148 136 139 138 140 144 134 143 151 161 181 207 234 231 202 215 201 205 207 203
228 238 224 237 252 249 251 239 212 212 241 281 259 290 320 88 101 29 96 100 99 101 130 141 129 133 134 134 140 146 147 150 166 159 166 194 174 182 220 214 200 192 183 177
244 238 237 265 257 243 181 194 266 300 197 269 283 290 243 21 124 130 111 110 103 105 115 123 128 132 136 148 149 149 149 160 163 175 175 181 200 178 185 192 188 168 171 179
353 211 231 242 252 251 237 208 222 158 165 203 257 319 235 87 123 119 121 134 124 127 129 132 138 144 149 155 159 160 167 175 176 179 196 179 173 182 179 176 174 170 173 173
290 221 198 234 253 259 226 203 182 187 273 218 170 230 284 138 143 131 136 130 126 128 137 138 137 137 137 150 162 166 179 183 187 182 196 204 186 178 176 170 170 170 177 180
317 329 245 263 261 255 344 275 182 178 132 230 159 227 3 53 54 24 111 104 107 109 101 119 127 139 147 153 165 179 184 187 192 195 193 191 196 189 178 172 180 173 171 173
331 260 208 239 220 206 199 243 249 169 191 235 222 137 325 34 61 77 8 74 98 115 105 110 127 152 151 159 168 176 178 186 192 200 192 184 196 208 191 193 185 179 179 178
106 290 340 303 335 321 213 339 319 308 233 176 190 143 205 146 122 124 130 298 116 110 109 127 109 114 129 136 155 172 177 180 185 198 196 197 195 198 199 197 195 193 190 185
1 349 350 299 324 320 334 189 252 268 268 262 171 178 139 183 167 101 124 161 130 138 144 136 144 142 138 148 159 169 181 190 195 194 198 203 196 197 195 191 196 200 200 195
62 75 28 309 356 321 54 14 30 335 354 231 134 135 131 138 88 40 80 81 62 43 34 34 40 160 156 169 176 178 184 193 189 197 207 206 203 200 196 193 198 206 209 206
126 98 104 300 1 343 167 150 59 89 24 16 110 137 150 117 104 78 56 69 70 64 38 20 36 46 38 200 190 184 183 183 197 207 217 221 210 208 202 200 205 207 216 213
152 116 47 56 315 278 247 50 65 96 39 5 3 337 55 73 66 43 50 64 60 74 64 36 57 47 44 36 37 204 182 188 198 215 60 33 327 221 211 216 213 213 215 219
178 143 137 162 212 261 265 70 185 145 115 120 2 331 323 348 43 11 12 30 52 59 39 29 64 57 48 36 54 79 90 128 98 64 17 318 313 304 316 318 239 219 216 217
4 0 187 260 236 267 25 2 300 152 141 153 129 323 285 102 57 337 11 21 22 36 22 75 54 65 52 40 47 73 81 39 17 42 64 20 340 306 269 277 274 226 214 216
52 347 25 327 353 329 353 338 49 125 149 135 120 144 134 150 170 124 47 26 26 28 22 21 31 91 67 55 54 47 19 13 320 334 341 355 326 299 250 235 248 217 212 210
68 91 199 190 211 325 340 331 13 79 128 138 117 150 147 125 128 136 131 75 40 39 26 34 56 59 50 54 48 43 31 17 346 316 280 349 3 349 198 215 204 200 207 207
110 206 256 187 212 232 282 289 297 324 82 88 115 116 102 117 129 119 86 69 69 54 39 27 48 54 51 47 43 26 28 18 1 337 295 240 287 282 297 226 200 199 204 206
227 260 60 304 355 40 10 318 80 0 30 51 50 80 111 99 108 105 100 100 81 71 59 41 37 51 48 49 44 37 31 24 16 5 2 318 249 254 264 267 234 222 223 223
200 108 104 247 305 233 150 266 334 357 60 55 67 52 46 59 65 75 76 84 81 72 67 50 36 44 47 52 53 43 43 45 43 37 17 3 350 344 340 263 245 271 273 235